Time,TemperatureF,DewpointF,PressureIn,WindDirection,WindDirectionDegrees,WindSpeedMPH,WindSpeedGustMPH,Humidity,HourlyPrecipIn,Conditions,Clouds,dailyrainin,SolarRadiationWatts/m^2,SoftwareType,DateUTC
2013-08-13 00:01:00,56.0,44.0,-100.00,NNW,345,5.0,10.0,64,0.00,,,0.00,0.000000,,2013-08-13 06:01:00,
2013-08-13 00:11:00,56.0,44.0,-100.00,NNW,345,5.0,10.0,64,0.00,,,0.00,0.000000,,2013-08-13 06:11:00,
2013-08-13 00:42:00,56.0,43.0,-100.00,NNE,26,5.0,8.0,61,0.00,,,0.00,0.000000,,2013-08-13 06:42:00,
2013-08-13 00:52:00,56.0,43.0,-100.00,NNE,26,5.0,8.0,61,0.00,,,0.00,0.000000,,2013-08-13 06:52:00,
2013-08-13 01:01:00,56.0,43.0,-100.00,NNE,26,5.0,8.0,61,0.00,,,0.00,0.000000,,2013-08-13 07:01:00,
2013-08-13 01:11:00,56.0,43.0,-100.00,NNE,26,5.0,8.0,61,0.00,,,0.00,0.000000,,2013-08-13 07:11:00,
2013-08-13 01:42:00,56.0,42.0,-100.00,North,9,6.0,8.0,59,0.00,,,0.00,0.000000,,2013-08-13 07:42:00,
2013-08-13 01:52:00,56.0,42.0,-100.00,North,9,6.0,8.0,59,0.00,,,0.00,0.000000,,2013-08-13 07:52:00,
2013-08-13 02:01:00,56.0,42.0,-100.00,North,9,6.0,8.0,59,0.00,,,0.00,0.000000,,2013-08-13 08:01:00,
2013-08-13 02:11:00,56.0,42.0,-100.00,North,9,6.0,8.0,59,0.00,,,0.00,0.000000,,2013-08-13 08:11:00,
2013-08-13 02:42:00,55.0,41.0,-100.00,East,90,4.0,8.0,59,0.00,,,0.00,0.000000,,2013-08-13 08:42:00,
2013-08-13 02:52:00,55.0,41.0,-100.00,East,90,4.0,8.0,59,0.00,,,0.00,0.000000,,2013-08-13 08:52:00,
2013-08-13 03:01:00,55.0,41.0,-100.00,East,90,4.0,8.0,59,0.00,,,0.00,0.000000,,2013-08-13 09:01:00,
2013-08-13 03:11:00,55.0,41.0,-100.00,East,90,4.0,8.0,59,0.00,,,0.00,0.000000,,2013-08-13 09:11:00,
2013-08-13 03:12:00,56.0,43.0,-100.00,North,8,2.0,7.0,62,0.00,,,0.00,0.000000,,2013-08-13 09:12:00,
2013-08-13 03:43:00,56.0,43.0,-100.00,North,8,2.0,7.0,62,0.00,,,0.00,0.000000,,2013-08-13 09:43:00,
2013-08-13 03:53:00,56.0,43.0,-100.00,North,8,2.0,7.0,62,0.00,,,0.00,0.000000,,2013-08-13 09:53:00,
2013-08-13 04:03:00,56.0,43.0,-100.00,North,8,2.0,7.0,62,0.00,,,0.00,0.000000,,2013-08-13 10:03:00,
2013-08-13 04:43:00,55.0,42.0,-100.00,East,98,4.0,7.0,62,0.00,,,0.00,0.000000,,2013-08-13 10:43:00,
2013-08-13 04:52:00,55.0,42.0,-100.00,East,98,4.0,7.0,62,0.00,,,0.00,0.000000,,2013-08-13 10:52:00,
2013-08-13 05:02:00,55.0,42.0,-100.00,East,98,4.0,7.0,62,0.00,,,0.00,0.000000,,2013-08-13 11:02:00,
2013-08-13 05:11:00,55.0,42.0,-100.00,East,98,4.0,7.0,62,0.00,,,0.00,0.000000,,2013-08-13 11:11:00,
2013-08-13 05:12:00,55.0,43.0,-100.00,North,11,3.0,7.0,64,0.00,,,0.00,0.000000,,2013-08-13 11:12:00,
2013-08-13 05:42:00,55.0,43.0,-100.00,North,11,3.0,7.0,64,0.00,,,0.00,0.000000,,2013-08-13 11:42:00,
2013-08-13 05:52:00,55.0,43.0,-100.00,North,11,3.0,7.0,64,0.00,,,0.00,0.000000,,2013-08-13 11:52:00,
2013-08-13 06:01:00,55.0,43.0,-100.00,North,11,3.0,7.0,64,0.00,,,0.00,0.000000,,2013-08-13 12:01:00,
2013-08-13 06:42:00,54.0,43.0,-100.00,ESE,108,7.0,9.0,66,0.00,,,-99.99,0.000000,,2013-08-13 12:42:00,
2013-08-13 06:52:00,54.0,43.0,-100.00,ESE,108,7.0,9.0,66,0.00,,,-99.99,0.000000,,2013-08-13 12:52:00,
2013-08-13 07:01:00,54.0,43.0,-100.00,ESE,108,7.0,9.0,66,0.00,,,-99.99,0.000000,,2013-08-13 13:01:00,
2013-08-13 07:11:00,54.0,43.0,-100.00,ESE,108,7.0,9.0,66,0.00,,,-99.99,0.000000,,2013-08-13 13:11:00,
2013-08-13 07:42:00,55.0,45.0,-100.00,ESE,116,7.0,11.0,69,0.00,,,0.00,18.000000,,2013-08-13 13:42:00,
2013-08-13 07:52:00,55.0,45.0,-100.00,ESE,116,7.0,11.0,69,0.00,,,0.00,18.000000,,2013-08-13 13:52:00,
2013-08-13 08:02:00,55.0,45.0,-100.00,ESE,116,7.0,11.0,69,0.00,,,0.00,18.000000,,2013-08-13 14:02:00,
2013-08-13 08:11:00,55.0,45.0,-100.00,ESE,116,7.0,11.0,69,0.00,,,0.00,18.000000,,2013-08-13 14:11:00,
2013-08-13 08:42:00,60.0,47.0,-100.00,NNE,26,2.0,8.0,61,0.00,,,0.00,200.000000,,2013-08-13 14:42:00,
2013-08-13 08:52:00,60.0,47.0,-100.00,NNE,26,2.0,8.0,61,0.00,,,0.00,200.000000,,2013-08-13 14:52:00,
2013-08-13 09:02:00,60.0,47.0,-100.00,NNE,26,2.0,8.0,61,0.00,,,0.00,200.000000,,2013-08-13 15:02:00,
2013-08-13 09:11:00,60.0,47.0,-100.00,NNE,26,2.0,8.0,61,0.00,,,0.00,200.000000,,2013-08-13 15:11:00,
2013-08-13 09:12:00,64.0,48.0,-100.00,East,100,4.0,7.0,57,0.00,,,-99.99,391.000000,,2013-08-13 15:12:00,
2013-08-13 09:44:00,64.0,48.0,-100.00,East,100,4.0,7.0,57,0.00,,,-99.99,391.000000,,2013-08-13 15:44:00,
2013-08-13 09:54:00,64.0,48.0,-100.00,East,100,4.0,7.0,57,0.00,,,-99.99,391.000000,,2013-08-13 15:54:00,
2013-08-13 10:03:00,64.0,48.0,-100.00,East,100,4.0,7.0,57,0.00,,,-99.99,391.000000,,2013-08-13 16:03:00,
2013-08-13 10:12:00,68.0,51.0,-100.00,SSE,149,4.0,7.0,55,0.00,,,0.00,574.000000,,2013-08-13 16:12:00,
2013-08-13 10:45:00,68.0,51.0,-100.00,SSE,149,4.0,7.0,55,0.00,,,0.00,574.000000,,2013-08-13 16:45:00,
2013-08-13 10:54:00,68.0,51.0,-100.00,SSE,149,4.0,7.0,55,0.00,,,0.00,574.000000,,2013-08-13 16:54:00,
2013-08-13 11:05:00,68.0,51.0,-100.00,SSE,149,4.0,7.0,55,0.00,,,0.00,574.000000,,2013-08-13 17:05:00,
2013-08-13 11:12:00,70.0,50.0,-100.00,SSW,207,5.0,10.0,50,0.00,,,0.00,699.000000,,2013-08-13 17:12:00,
2013-08-13 11:46:00,-999.0,-99.9,-100.00,SSW,207,5.0,10.0,-999,0.00,,,0.00,699.000000,,2013-08-13 17:46:00,
2013-08-13 11:56:00,70.0,50.0,-100.00,SSW,207,5.0,10.0,50,0.00,,,0.00,699.000000,,2013-08-13 17:56:00,
2013-08-13 12:05:00,70.0,50.0,-100.00,SSW,207,5.0,10.0,50,0.00,,,0.00,699.000000,,2013-08-13 18:05:00,
2013-08-13 12:12:00,72.0,49.0,-100.00,West,280,7.0,14.0,44,0.00,,,0.00,862.000000,,2013-08-13 18:12:00,
2013-08-13 12:44:00,72.0,49.0,-100.00,West,280,7.0,14.0,44,0.00,,,0.00,862.000000,,2013-08-13 18:44:00,
2013-08-13 12:56:00,72.0,49.0,-100.00,West,280,7.0,14.0,44,0.00,,,0.00,862.000000,,2013-08-13 18:56:00,
2013-08-13 13:04:00,72.0,49.0,-100.00,West,280,7.0,14.0,44,0.00,,,0.00,862.000000,,2013-08-13 19:04:00,
2013-08-13 13:12:00,74.0,43.0,-100.00,West,260,6.0,14.0,33,0.00,,,0.00,881.000000,,2013-08-13 19:12:00,
2013-08-13 13:44:00,74.0,43.0,-100.00,West,260,6.0,14.0,33,0.00,,,0.00,881.000000,,2013-08-13 19:44:00,
2013-08-13 13:55:00,74.0,43.0,-100.00,West,260,6.0,14.0,33,0.00,,,0.00,881.000000,,2013-08-13 19:55:00,
2013-08-13 14:04:00,74.0,43.0,-100.00,West,260,6.0,14.0,33,0.00,,,0.00,881.000000,,2013-08-13 20:04:00,
2013-08-13 14:45:00,76.0,40.0,-100.00,WNW,296,6.0,14.0,27,0.00,,,0.00,848.000000,,2013-08-13 20:45:00,
2013-08-13 14:53:00,76.0,40.0,-100.00,WNW,296,6.0,14.0,27,0.00,,,0.00,848.000000,,2013-08-13 20:53:00,
2013-08-13 15:01:00,76.0,40.0,-100.00,WNW,296,6.0,14.0,27,0.00,,,0.00,848.000000,,2013-08-13 21:01:00,
2013-08-13 15:11:00,76.0,40.0,-100.00,WNW,296,6.0,14.0,27,0.00,,,0.00,848.000000,,2013-08-13 21:11:00,
2013-08-13 15:12:00,77.0,34.0,-100.00,West,263,5.0,15.0,21,0.00,,,0.00,864.000000,,2013-08-13 21:12:00,
2013-08-13 15:46:00,77.0,34.0,-100.00,West,263,5.0,15.0,21,0.00,,,0.00,864.000000,,2013-08-13 21:46:00,
2013-08-13 15:54:00,77.0,34.0,-100.00,West,263,5.0,15.0,21,0.00,,,0.00,864.000000,,2013-08-13 21:54:00,
2013-08-13 16:03:00,77.0,34.0,-100.00,West,263,5.0,15.0,21,0.00,,,0.00,864.000000,,2013-08-13 22:03:00,
2013-08-13 16:12:00,74.0,33.0,-100.00,WNW,301,5.0,14.0,22,0.00,,,-99.99,636.000000,,2013-08-13 22:12:00,
2013-08-13 16:50:00,74.0,33.0,-100.00,WNW,301,5.0,14.0,22,0.00,,,-99.99,636.000000,,2013-08-13 22:50:00,
2013-08-13 16:56:00,74.0,33.0,-100.00,WNW,301,5.0,14.0,22,0.00,,,-99.99,636.000000,,2013-08-13 22:56:00,
2013-08-13 17:03:00,74.0,33.0,-100.00,WNW,301,5.0,14.0,22,0.00,,,-99.99,636.000000,,2013-08-13 23:03:00,
2013-08-13 17:47:00,78.0,35.0,-100.00,West,276,6.0,13.0,21,0.00,,,0.00,504.000000,,2013-08-13 23:47:00,
2013-08-13 17:57:00,78.0,35.0,-100.00,West,276,6.0,13.0,21,0.00,,,0.00,504.000000,,2013-08-13 23:57:00,
2013-08-13 18:03:00,78.0,35.0,-100.00,West,276,6.0,13.0,21,0.00,,,0.00,504.000000,,2013-08-14 00:03:00,
2013-08-13 18:11:00,78.0,35.0,-100.00,West,276,6.0,13.0,21,0.00,,,0.00,504.000000,,2013-08-14 00:11:00,
2013-08-13 18:42:00,71.0,32.0,-100.00,NE,49,3.0,13.0,24,0.00,,,0.00,172.000000,,2013-08-14 00:42:00,
2013-08-13 18:52:00,71.0,32.0,-100.00,NE,49,3.0,13.0,24,0.00,,,0.00,172.000000,,2013-08-14 00:52:00,
2013-08-13 19:01:00,71.0,32.0,-100.00,NE,49,3.0,13.0,24,0.00,,,0.00,172.000000,,2013-08-14 01:01:00,
2013-08-13 19:11:00,71.0,32.0,-100.00,NE,49,3.0,13.0,24,0.00,,,0.00,172.000000,,2013-08-14 01:11:00,
2013-08-13 19:42:00,68.0,39.0,-100.00,ESE,109,6.0,19.0,34,0.00,,,0.00,112.000000,,2013-08-14 01:42:00,
2013-08-13 19:52:00,68.0,39.0,-100.00,ESE,109,6.0,19.0,34,0.00,,,0.00,112.000000,,2013-08-14 01:52:00,
2013-08-13 20:02:00,68.0,39.0,-100.00,ESE,109,6.0,19.0,34,0.00,,,0.00,112.000000,,2013-08-14 02:02:00,
2013-08-13 20:11:00,68.0,39.0,-100.00,ESE,109,6.0,19.0,34,0.00,,,0.00,112.000000,,2013-08-14 02:11:00,
2013-08-13 20:42:00,64.0,35.0,-100.00,East,98,4.0,6.0,34,0.00,,,0.00,30.000000,,2013-08-14 02:42:00,
2013-08-13 20:52:00,64.0,35.0,-100.00,East,98,4.0,6.0,34,0.00,,,0.00,30.000000,,2013-08-14 02:52:00,
2013-08-13 21:01:00,64.0,35.0,-100.00,East,98,4.0,6.0,34,0.00,,,0.00,30.000000,,2013-08-14 03:01:00,
2013-08-13 21:11:00,64.0,35.0,-100.00,East,98,4.0,6.0,34,0.00,,,0.00,30.000000,,2013-08-14 03:11:00,
2013-08-13 21:12:00,65.0,33.0,-100.00,WNW,285,5.0,6.0,30,0.00,,,0.00,0.000000,,2013-08-14 03:12:00,
2013-08-13 21:43:00,65.0,33.0,-100.00,WNW,285,5.0,6.0,30,0.00,,,0.00,0.000000,,2013-08-14 03:43:00,
2013-08-13 21:53:00,65.0,33.0,-100.00,WNW,285,5.0,6.0,30,0.00,,,0.00,0.000000,,2013-08-14 03:53:00,
2013-08-13 22:03:00,65.0,33.0,-100.00,WNW,285,5.0,6.0,30,0.00,,,0.00,0.000000,,2013-08-14 04:03:00,
2013-08-13 22:12:00,63.0,36.0,-100.00,NNW,331,5.0,6.0,37,0.00,,,-99.99,0.000000,,2013-08-14 04:12:00,
2013-08-13 22:42:00,63.0,36.0,-100.00,NNW,331,5.0,6.0,37,0.00,,,-99.99,0.000000,,2013-08-14 04:42:00,
2013-08-13 22:52:00,63.0,36.0,-100.00,NNW,331,5.0,6.0,37,0.00,,,-99.99,0.000000,,2013-08-14 04:52:00,
2013-08-13 23:02:00,63.0,36.0,-100.00,NNW,331,5.0,6.0,37,0.00,,,-99.99,0.000000,,2013-08-14 05:02:00,
2013-08-13 23:42:00,63.0,36.0,-100.00,NNE,20,3.0,6.0,37,0.00,,,0.00,0.000000,,2013-08-14 05:42:00,
2013-08-13 23:52:00,63.0,36.0,-100.00,NNE,20,3.0,6.0,37,0.00,,,0.00,0.000000,,2013-08-14 05:52:00,